Moore, Oklahoma, United States
Lat: 35.34N, Lon: 97.49W
Wx Zone: OKZ029
Local Info
Past Weather Observations for Wednesday, April 27, 2016

NOTE: This archive is for the closest National Weather Service station to Moore. Information may differ from the station used for current weather conditions.

Click here for Long-term Archive

Time Weather Temperature Dewpoint Humidity Pressure Winds Precip Visibility
23:52
Clear
55°F / 13°C 45°F / 7°C 67% 29.83 in
(1010 mb)
NE 4.6 mph
(NE 7 kph)
- 10SM
22:52
Clear
61°F / 16°C 43°F / 6°C 52% 29.8 in
(1009 mb)
NE 6.9 mph
(NE 11 kph)
- 10SM
21:52
Clear
57°F / 14°C 45°F / 7°C 63% 29.8 in
(1009 mb)
Calm - 10SM
20:52
Clear
63°F / 17°C 45°F / 7°C 52% 29.77 in
(1008 mb)
NW 3.5 mph
(NW 6 kph)
- 10SM
19:52
Partly Cloudy
63°F / 17°C 46°F / 8°C 56% 29.77 in
(1008 mb)
SSW 4.6 mph
(SSW 7 kph)
- 10SM
18:52
Partly Cloudy
66°F / 19°C 46°F / 8°C 49% 29.74 in
(1007 mb)
SSW 5.8 mph
(SSW 9 kph)
- 10SM
17:52
Partly Cloudy
72°F / 22°C 46°F / 8°C 41% 29.71 in
(1006 mb)
WNW 11.5 mph
(WNW 19 kph)
- 10SM
16:52
Partly Cloudy
72°F / 22°C 46°F / 8°C 41% 29.71 in
(1006 mb)
WNW 15 mph
(WNW 24 kph)
- 10SM
15:52
Partly Cloudy
72°F / 22°C 50°F / 10°C 47% 29.71 in
(1006 mb)
W 13.8 mph
(W 22 kph)
- 10SM
14:52
Partly Cloudy
72°F / 22°C 48°F / 9°C 44% 29.71 in
(1006 mb)
WNW 10.4 mph
(WNW 17 kph)
- 10SM
13:52
Partly Cloudy
72°F / 22°C 50°F / 10°C 47% 29.71 in
(1006 mb)
WNW 15 mph
(WNW 24 kph)
- 10SM
12:52
Clear
70°F / 21°C 52°F / 11°C 53% 29.71 in
(1006 mb)
NW 10.4 mph
(NW 17 kph)
- 10SM
11:52
Partly Cloudy
66°F / 19°C 52°F / 11°C 60% 29.71 in
(1006 mb)
NW 18.4 mph
(NW 30 kph)
- 10SM
10:52
Partly Cloudy
64°F / 18°C 52°F / 11°C 64% 29.68 in
(1005 mb)
NW 13.8 mph
(NW 22 kph)
- 10SM
09:52
Partly Cloudy
63°F / 17°C 54°F / 12°C 73% 29.68 in
(1005 mb)
NW 16.1 mph
(NW 26 kph)
- 10SM
08:52
Partly Cloudy
61°F / 16°C 52°F / 11°C 72% 29.65 in
(1004 mb)
WNW 17.3 mph
(WNW 28 kph)
- 10SM
07:52
Partly Cloudy
61°F / 16°C 55°F / 13°C 83% 29.65 in
(1004 mb)
SSW 10.4 mph
(SSW 17 kph)
- 10SM
07:25
Partly Cloudy
Fog And Mist
57°F / 14°C 57°F / 14°C 100% 29.62 in
(1003 mb)
SW 8.1 mph
(SW 13 kph)
- 6SM
07:02
Overcast
Fog And Mist
57°F / 14°C 57°F / 14°C 100% 29.62 in
(1003 mb)
SW 13.8 mph
(SW 22 kph)
- 4SM
06:52
Overcast
Fog And Mist
57°F / 14°C 57°F / 14°C 100% 29.62 in
(1003 mb)
SW 10.4 mph
(SW 17 kph)
- 2SM
06:16
Overcast
Fog And Mist
55°F / 13°C 55°F / 13°C 100% 29.59 in
(1002 mb)
SW 12.7 mph
(SW 20 kph)
- 2SM
05:52
Overcast
Fog And Mist
55°F / 13°C 55°F / 13°C 100% 29.59 in
(1002 mb)
S 10.4 mph
(S 17 kph)
- 1/2SM
04:52
Overcast
Fog And Mist
55°F / 13°C 55°F / 13°C 100% 29.56 in
(1001 mb)
SSE 10.4 mph
(SSE 17 kph)
- 1/2SM
04:06
Mostly Cloudy
Fog And Mist
54°F / 12°C 54°F / 12°C 100% 29.56 in
(1001 mb)
S 8.1 mph
(S 13 kph)
- 1/2SM
03:52
Partly Cloudy
Fog And Mist
54°F / 12°C 54°F / 12°C 100% 29.56 in
(1001 mb)
SSE 8.1 mph
(SSE 13 kph)
- 2SM
03:00
Partly Cloudy
Fog And Mist
54°F / 12°C 54°F / 12°C 100% 29.56 in
(1001 mb)
S 5.8 mph
(S 9 kph)
- 6SM
02:52
Mostly Cloudy
55°F / 13°C 55°F / 13°C 100% 29.59 in
(1002 mb)
SW 6.9 mph
(SW 11 kph)
- 7SM
02:11
Mostly Cloudy
55°F / 13°C 55°F / 13°C 100% 29.56 in
(1001 mb)
S 8.1 mph
(S 13 kph)
- 10SM
01:52
Clear
55°F / 13°C 55°F / 13°C 100% 29.59 in
(1002 mb)
SW 10.4 mph
(SW 17 kph)
- 10SM
00:52
Mostly Cloudy
55°F / 13°C 55°F / 13°C 100% 29.59 in
(1002 mb)
SW 6.9 mph
(SW 11 kph)
- 10SM
Time Weather Temperature Dewpoint Humidity Pressure Winds Precip Visibility


Weather for websites

WeatherForYou.com, LLC is not responsible for any damages or problems caused by this service. Current weather conditions are obtained from the closest station including government and personal stations which may have varying degrees of accuracy. Weather forecasts are derived from the NOAA NDFD. Like all things, this site belongs to Jesus Christ... He just trusts us to maintain it. If you have any questions or comments email webmaster@weatherforyou.com

Copyright © 2016, WeatherForYou.com LLC. All rights reserved.